星链-5186 (STARLINK-5186 )

导读

STARLINK-5186是美国太空探索技术公司SpaceX星链星座项目中的卫星,于2022年10月28日发射升空,运行于近地低轨道。星链项目旨在通过大规模低轨卫星组网,为全球尤其是偏远无基础设施区域提供高速低延迟的卫星互联网服务,该卫星已在轨运行超三年,助力星链持续扩展全球网络覆盖,推动卫星互联网服务落地,但也引发了太空拥堵与天文观测影响等争议。

Basic Information
目录编号:
54177
目录名称:
STARLINK-5186
国际标识:
2022-141W
轨道中心:
EARTH
卫星名称:
星链-5186
卫星全名:
星链-5186 (STARLINK-5186 )
卫星状态:
在轨 (已飞行1414 天)
发射日期:
2022-10-28 UTC
国别 :
美国 (US)
星等 :
--
This satellite is enrolled in the Space Conjunction Data Service (SCDS) and the current flight risk assessment level is: No High Risk
Orbit Information
数据来源 国际轨道数据 AOE轨道数据
星历时间 2026-09-11T07:47:37+0800
19小时前
查看轨道信息
2026-09-10T23:00:00+0800
1天前
查看轨道信息
半长轴 6840.89km 6840.844km
偏心率 0.0001141 0.0001254
轨道倾角 53.159° 53.157°
近地点辐角 81.510° 85.558°
升交点赤经 238.211° 239.927°
平近点角 278.603° 49.509°
近地点 461.972km 461.849km
远地点 463.534km 463.565km
周期 93.849分钟 93.848分钟
每日圈数 15.343835 15.343988
Detailed Information
固有亮度:
5
最大亮度:
2.5
卫星平台:
Starlink v1.5
覆盖范围:
全球
运营商:
太空探索技术公司
运营商所在国:
美国
制造商(研发单位):
太空探索技术公司
制造商所在国:
美国
使用方式:
暂无
Satellite Introduction
星链(Starlink)计划是由太空探索技术公司(SpaceX)提出的一个巨型低轨卫星互联网星座项目,计划在2019年至2024年间在太空搭建由约1.2万颗卫星组成的“星链”网络,其中1584颗将部署在地球上空550千米处的近地轨道,并从2020年开始工作。该卫星仍在工作。
2D Orbit Map
3D Orbit Map
Orbit Altitude Analysis Chart
Orbit Inclination Analysis Chart
Orbit Comprehensive Analysis Chart
View Comprehensive Chart
Conjunction Data List
Event ID Objects TCA Miss Dist (km) Collision Risk Probability Collision Risk Index (CRI) Action
CDM_260913-082305-417706-245022
2026-09-13T
08:23:57+0000
0.197 km
中距离
5.578404E-4 高风险 0.9
CDM_260913-135205-417706-245022
2026-09-13T
13:52:14+0000
0.614 km
远距离
5.980087E-5 中风险 0.71
CDM_260913-082505-320005-417721
2026-09-13T
08:25:24+0000
1.672 km
极远距离
3.86184E-6 低风险 0.47
CDM_260910-174305-020005-417721
2026-09-10T
17:43:54+0000
1.889 km
极远距离
2.684895E-6 低风险 0.44
CDM_260907-112403-074405-417721
2026-09-07T
11:24:41+0000
2.783 km
极远距离
1.478099E-6 低风险 0.38
CDM_260910-214505-382705-417721
2026-09-10T
21:45:57+0000
2.894 km
极远距离
8.027387E-7 极低风险 0.33
Miss Distance Evolution Trend with All Objects
Collision Probability Evolution Trend with All Objects